• In Hungary
  • List of Countries
  • For 7 days
  • Water Temperature
  • Satellite Maps
  • Weather Map
  • News
  • Weather Widgets
  • user-avatar
    Login

    Hourly Weather Mieczyn

    Today, 21 September, Friday

    Time Temperature Precipitation Wind Pressure Humidity
    00:00 +18°C° 0 mm 2 mps 742 mmHg 58%
    01:00 +18°C° 0 mm 2 mps 742 mmHg 60%
    02:00 +17°C° 0 mm 2 mps 742 mmHg 61%
    03:00 +17°C° 0 mm 2 mps 742 mmHg 63%
    04:00 +17°C° 0 mm 2 mps 741 mmHg 65%
    05:00 +17°C° 0 mm 2 mps 741 mmHg 64%
    06:00 +18°C° 0 mm 2 mps 741 mmHg 64%
    07:00 +18°C° 0 mm 2 mps 741 mmHg 61%
    08:00 +20°C° 0 mm 3 mps 741 mmHg 55%
    09:00 +22°C° 0 mm 3 mps 741 mmHg 49%
    10:00 +26°C° 0 mm 4 mps 741 mmHg 43%
    11:00 +26°C° 0 mm 4 mps 740 mmHg 40%
    12:00 +27°C° 0 mm 4 mps 740 mmHg 37%
    13:00 +29°C° 0 mm 4 mps 739 mmHg 35%
    14:00 +28°C° 0 mm 4 mps 739 mmHg 37%
    15:00 +28°C° 0 mm 4 mps 738 mmHg 39%
    16:00 +28°C° 0 mm 4 mps 738 mmHg 41%
    17:00 +26°C° 0 mm 4 mps 737 mmHg 46%
    18:00 +23°C° 0 mm 4 mps 737 mmHg 50%
    19:00 +21°C° 0 mm 4 mps 737 mmHg 54%
    20:00 +21°C° 0 mm 4 mps 737 mmHg 55%
    21:00 +21°C° 0 mm 4 mps 736 mmHg 56%
    22:00 +20°C° 0 mm 5 mps 736 mmHg 57%
    23:00 +20°C° 0.1 mm 5 mps 736 mmHg 61%

    Tomorrow, 22 September, Saturday

    Time Temperature Precipitation Wind Pressure Humidity
    00:00 +20°C° 0.1 mm 5 mps 737 mmHg 64%
    01:00 +20°C° 0.1 mm 5 mps 737 mmHg 68%
    02:00 +17°C° 0.9 mm 6 mps 738 mmHg 73%
    03:00 +15°C° 0.9 mm 6 mps 739 mmHg 78%
    04:00 +14°C° 0.9 mm 6 mps 740 mmHg 83%
    05:00 +13°C° 0.3 mm 6 mps 740 mmHg 81%
    06:00 +13°C° 0.3 mm 5 mps 741 mmHg 80%
    07:00 +13°C° 0.3 mm 4 mps 742 mmHg 78%
    08:00 +13°C° 0 mm 4 mps 742 mmHg 72%
    09:00 +14°C° 0 mm 4 mps 742 mmHg 66%
    10:00 +14°C° 0 mm 4 mps 743 mmHg 61%
    11:00 +15°C° 0 mm 5 mps 743 mmHg 55%
    12:00 +16°C° 0 mm 5 mps 742 mmHg 49%
    13:00 +17°C° 0 mm 5 mps 742 mmHg 44%
    14:00 +17°C° 0 mm 5 mps 742 mmHg 44%
    15:00 +17°C° 0 mm 5 mps 742 mmHg 45%
    16:00 +17°C° 0 mm 5 mps 742 mmHg 45%
    17:00 +15°C° 0 mm 4 mps 742 mmHg 49%
    18:00 +14°C° 0 mm 3 mps 742 mmHg 54%
    19:00 +13°C° 0 mm 3 mps 742 mmHg 58%
    20:00 +12°C° 0 mm 3 mps 742 mmHg 58%
    21:00 +12°C° 0 mm 3 mps 743 mmHg 59%
    22:00 +13°C° 0 mm 2 mps 743 mmHg 60%
    23:00 +12°C° 0 mm 3 mps 743 mmHg 61%

    Day after tomorrow, 23 September, Sunday

    Time Temperature Precipitation Wind Pressure Humidity
    00:00 +11°C° 0 mm 3 mps 742 mmHg 63%
    01:00 +11°C° 0 mm 3 mps 742 mmHg 64%
    02:00 +11°C° 0 mm 3 mps 742 mmHg 66%
    03:00 +11°C° 0 mm 3 mps 742 mmHg 68%
    04:00 +10°C° 0 mm 3 mps 742 mmHg 69%
    05:00 +11°C° 0 mm 4 mps 742 mmHg 69%
    06:00 +11°C° 0 mm 4 mps 742 mmHg 69%
    07:00 +12°C° 0 mm 4 mps 742 mmHg 69%
    08:00 +13°C° 0 mm 5 mps 742 mmHg 65%
    09:00 +14°C° 0 mm 5 mps 742 mmHg 61%
    10:00 +15°C° 0 mm 5 mps 742 mmHg 57%
    11:00 +15°C° 0.1 mm 5 mps 741 mmHg 57%
    12:00 +15°C° 0.1 mm 5 mps 741 mmHg 56%
    13:00 +15°C° 0.1 mm 5 mps 741 mmHg 56%
    14:00 +15°C° 0 mm 5 mps 740 mmHg 58%
    15:00 +15°C° 0 mm 4 mps 740 mmHg 59%
    16:00 +15°C° 0 mm 4 mps 739 mmHg 60%
    17:00 +14°C° 0 mm 4 mps 738 mmHg 65%
    18:00 +13°C° 0 mm 3 mps 738 mmHg 69%
    19:00 +12°C° 0 mm 3 mps 737 mmHg 74%
    20:00 +12°C° 0.9 mm 4 mps 736 mmHg 77%
    21:00 +12°C° 0.9 mm 5 mps 734 mmHg 80%
    22:00 +11°C° 0.9 mm 6 mps 733 mmHg 83%
    23:00 +12°C° 2.5 mm 7 mps 731 mmHg 83%

    24 September, Monday

    Time Temperature Precipitation Wind Pressure Humidity
    00:00 +14°C° 2.5 mm 7 mps 729 mmHg 82%
    01:00 +13°C° 2.5 mm 8 mps 727 mmHg 82%
    02:00 +15°C° 1.4 mm 9 mps 727 mmHg 82%
    03:00 +14°C° 1.4 mm 10 mps 727 mmHg 81%
    04:00 +14°C° 1.4 mm 11 mps 727 mmHg 81%
    05:00 +12°C° 0.4 mm 11 mps 729 mmHg 82%
    06:00 +9°C° 0.4 mm 11 mps 731 mmHg 82%
    07:00 +7°C° 0.4 mm 12 mps 733 mmHg 82%
    08:00 +7°C° 0.1 mm 11 mps 735 mmHg 80%
    09:00 +8°C° 0.1 mm 11 mps 736 mmHg 78%
    10:00 +8°C° 0.1 mm 10 mps 738 mmHg 75%
    11:00 +9°C° 0.2 mm 10 mps 739 mmHg 70%
    12:00 +9°C° 0.2 mm 10 mps 740 mmHg 64%
    13:00 +11°C° 0.2 mm 11 mps 740 mmHg 58%
    14:00 +9°C° 0.1 mm 10 mps 741 mmHg 56%
    15:00 +9°C° 0.1 mm 10 mps 741 mmHg 55%
    16:00 +9°C° 0.1 mm 10 mps 742 mmHg 53%
    17:00 +8°C° 0 mm 9 mps 742 mmHg 56%
    18:00 +9°C° 0 mm 8 mps 743 mmHg 59%
    19:00 +8°C° 0 mm 7 mps 744 mmHg 62%
    20:00 +7°C° 0 mm 6 mps 744 mmHg 65%
    21:00 +7°C° 0 mm 6 mps 745 mmHg 67%
    22:00 +7°C° 0 mm 5 mps 746 mmHg 70%
    23:00 +6°C° 0 mm 5 mps 746 mmHg 71%

    25 September, Tuesday

    Time Temperature Precipitation Wind Pressure Humidity
    00:00 +6°C° 0 mm 5 mps 746 mmHg 72%
    01:00 +5°C° 0 mm 5 mps 747 mmHg 74%
    02:00 +5°C° 0 mm 5 mps 747 mmHg 74%
    03:00 +5°C° 0 mm 5 mps 748 mmHg 75%
    04:00 +5°C° 0 mm 5 mps 748 mmHg 76%
    05:00 +5°C° 0 mm 5 mps 748 mmHg 76%
    06:00 +5°C° 0 mm 5 mps 749 mmHg 75%
    07:00 +5°C° 0 mm 6 mps 749 mmHg 74%
    08:00 +7°C° 0 mm 6 mps 750 mmHg 66%
    09:00 +8°C° 0 mm 6 mps 750 mmHg 57%
    10:00 +10°C° 0 mm 6 mps 751 mmHg 48%
    11:00 +10°C° 0 mm 6 mps 750 mmHg 45%
    12:00 +11°C° 0 mm 6 mps 750 mmHg 43%
    13:00 +11°C° 0 mm 6 mps 750 mmHg 40%
    14:00 +11°C° 0 mm 6 mps 750 mmHg 42%
    15:00 +12°C° 0 mm 5 mps 749 mmHg 45%
    16:00 +10°C° 0 mm 5 mps 749 mmHg 47%
    17:00 +10°C° 0 mm 5 mps 749 mmHg 50%
    18:00 +9°C° 0 mm 5 mps 749 mmHg 53%
    19:00 +9°C° 0 mm 5 mps 748 mmHg 55%
    20:00 +8°C° 0.1 mm 6 mps 748 mmHg 56%
    21:00 +8°C° 0.1 mm 7 mps 747 mmHg 57%
    22:00 +7°C° 0.1 mm 8 mps 747 mmHg 59%
    23:00 +7°C° 0.4 mm 8 mps 747 mmHg 65%

    26 September, Wednesday

    Time Temperature Precipitation Wind Pressure Humidity
    00:00 +7°C° 0.4 mm 8 mps 746 mmHg 71%
    01:00 +6°C° 0.4 mm 8 mps 746 mmHg 78%
    02:00 +6°C° 0.2 mm 7 mps 746 mmHg 80%
    03:00 +7°C° 0.2 mm 6 mps 746 mmHg 82%
    04:00 +6°C° 0.2 mm 5 mps 747 mmHg 84%
    05:00 +6°C° 0 mm 5 mps 747 mmHg 82%
    06:00 +7°C° 0 mm 5 mps 747 mmHg 81%
    07:00 +7°C° 0 mm 6 mps 748 mmHg 80%
    08:00 +8°C° 0 mm 6 mps 748 mmHg 71%
    09:00 +10°C° 0 mm 6 mps 749 mmHg 61%
    10:00 +11°C° 0 mm 7 mps 749 mmHg 52%
    11:00 +12°C° 0 mm 7 mps 749 mmHg 51%
    12:00 +13°C° 0 mm 6 mps 749 mmHg 49%
    13:00 +14°C° 0 mm 6 mps 749 mmHg 47%
    14:00 +14°C° 0 mm 6 mps 750 mmHg 49%
    15:00 +14°C° 0 mm 5 mps 750 mmHg 50%
    16:00 +14°C° 0 mm 4 mps 750 mmHg 52%
    17:00 +12°C° 0 mm 4 mps 750 mmHg 58%
    18:00 +11°C° 0 mm 3 mps 750 mmHg 64%
    19:00 +9°C° 0 mm 2 mps 751 mmHg 70%
    20:00 +9°C° 0 mm 2 mps 751 mmHg 71%
    21:00 +9°C° 0 mm 2 mps 751 mmHg 73%
    22:00 +9°C° 0 mm 2 mps 751 mmHg 75%
    23:00 +9°C° 0 mm 2 mps 751 mmHg 78%
    Show more